KINEIS-1E

Last updated on Wed Oct 22 2025 00:02:42 GMT+0000 (Coordinated Universal Time)

1 60083U 24114E 25294.63432015 .00001967 00000+0 26723-3 0 9990 2 60083 98.0042 314.7107 0002037 122.1588 237.9821 14.79968156 72090
UTC large
Height (km)
Speed (km/s)
/
Latitude / Longitude
Inclination (degrees)
Orbital Period (minutes)
Azimuth
Elevation
Range (km)
Doppler Factor

Next 0 passes for location: London (51.5072 / 0.1276)

Sorry there are no passes over London.